Hovedside
METAR-TAF:

METAR-TAF

Lufthavner :

Mora, Sverige

Mora–Siljan

breddegrad: 60-57-31N, lengdegrad: 14-30-40E, høyde over havet: 193 m

Gjeldene værobservasjon

Denne rapporten ble laget for 15 minutter siden, klokken 21:50 UTC
Vind 3 kt fra Sørøst
Temperatur 15°C
Luftfuktighet 88%
Trykk 1007 hPa
Sikt 10 km eller mer

METAR: ESKM 182150Z AUTO 13003KT 9999 SCT040/// BKN078/// 15/13 Q1007

Tid: 00:05 (22:05 UTC)


TAF: fraværende

Værobservasjoner og værvarsel for over 4000 flyplasser (METAR- og TAF-rapporter).

Tilgjengelige stasjoner er representert av de røde og gule prikkene på kartet.

Hold musepekeren over prikken for å se navnet på stasjonen.

Klikk så for å se værobservasjoner og -varsler.

For å forandre kartet kan du klikke på den grønne knappen med svart kryss for å zoome inn, på den grønne knappen med strek for å zoome ut, eller på de grønne pilene for å se tilstøtende kart.


METAR-TAF: